Location: Br�ttisellen
(47.4227°N, 8.6287°E)
Time: 09:05:21
(UTC+00:00)

STARLINK-52 - Pass Details

Date: 09 April 2020
Orbit: 393 x 394 km, 53.0° (Epoch: 02 June)

Event Time Altitude Azimuth Distance (km) Brightness Sun altitude
Rises 19:03:00 0° 228° (SW) 2,283 7.1 -9.8°
Reaches altitude 10° 19:05:05 10° 224° (SW) 1,431 6.0 -10.2°
Maximum altitude 19:08:13 54° 146° (SSE) 485 3.0 -10.6°
Drops below altitude 10° 19:11:23 10° 68° (ENE) 1,443 5.4 -11.1°
Enters shadow 19:11:31 - 67° (ENE) 1,500 5.5 -11.1°
